Miscellaneous Local Product
Issued by NWS Hastings, NE

Home | Current Version | Previous Version | Graphics & Text | Print | Product List | Glossary On
Versions: 1 2 3 4 5 6 7 8 9 10 11 12 13 14 15 16 17 18 19 20 21 22 23 24 25 26 27 28 29 30 31 32 33 34 35 36 37 38 39 40 41 42 43 44 45 46 47 48 49 50
000
AXUS43 KGID 242102
MISGRI

GID CWA HOURLY WEATHER ROUNDUP
NATIONAL WEATHER SERVICE HASTINGS NE
400 PM CDT TUE MAY 24 2016

NOTE: "FAIR" INDICATES FEW OR NO CLOUDS BELOW 12,000 FEET WITH NO
SIGNIFICANT WEATHER AND/OR OBSTRUCTIONS TO VISIBILITY.

...SOUTH CENTRAL NEBRASKA...

CITY           SKY/WX    TMP DP  RH WIND       PRES   REMARKS
GRAND ISLAND   SUNNY     78  58  49 SE12      29.89F
HASTINGS       SUNNY     78  61  55 S10       29.89S
KEARNEY        SUNNY     79  57  47 S14       29.88F
ORD            SUNNY     81  53  37 SE9       29.85F
YORK           SUNNY     81  59  47 SW6       29.89S
AURORA         SUNNY     78  56  47 CALM      29.89S
LEXINGTON      SUNNY     78  60  54 S15       29.87F
HOLDREGE       SUNNY     78  56  46 S15G22    29.88F
HEBRON         SUNNY     80  60  51 S8        29.89F

...NEBRASKA PANHANDLE...

CITY           SKY/WX    TMP DP  RH WIND       PRES   REMARKS
CHADRON        MOSUNNY   79  45  29 S20G25    29.81F
ALLIANCE       SUNNY     75  48  38 S20G25    29.86F
SCOTTSBLUFF    MOSUNNY   78  48  34 SE18G28   29.83F
SIDNEY         MOSUNNY   77  46  33 SE20G31   29.88F

...WESTERN AND NORTH CENTRAL NEBRASKA...

CITY           SKY/WX    TMP DP  RH WIND       PRES   REMARKS
VALENTINE      SUNNY     81  47  30 SE8       29.86F
AINSWORTH      SUNNY     81  49  33 S9        29.87F
ONEILL         SUNNY     82  48  30 S8        29.88S
BROKEN BOW     SUNNY     79  57  46 SE10      29.88F
IMPERIAL       PTSUNNY   76  58  53 SE20G30   29.86F
NORTH PLATTE   SUNNY     79  54  41 SE10G21   29.86F
MCCOOK         MOSUNNY   77  60  55 S16G24    29.87F

...EASTERN NEBRASKA...

CITY           SKY/WX    TMP DP  RH WIND       PRES   REMARKS
NORFOLK        SUNNY     84  51  31 CALM      29.86S
SO SIOUX CITY  SUNNY     82  68  62 SE9       29.87S
TEKAMAH        MOSUNNY   82  61  48 CALM      29.87S
COLUMBUS       SUNNY     82  52  34 SE8       29.88F
ALBION         SUNNY     82  51  33 S6        29.86F
OMAHA EPPLEY   MOSUNNY   81  59  47 SE9       29.89S
MILLARD        SUNNY     81  60  49 SE6       29.89S
LINCOLN        PTSUNNY   80  62  54 W3        29.90R
NEBRASKA CITY  SUNNY     79  63  57 NE7       29.91R
BEATRICE       SUNNY     79  63  56 S5        29.90S
FALLS CITY     CLOUDY    83  62  49 SW7       29.88F

...NORTHERN KANSAS...

CITY           SKY/WX    TMP DP  RH WIND       PRES   REMARKS
GOODLAND       MOSUNNY   75  60  59 SE12      29.87F
HILL CITY      SUNNY     80  60  50 SE18G26   29.86F
NORTON         PTCLDY    75  55  50 SE15G21   29.87S
PHILLIPSBURG   SUNNY     79  59  50 SE14G26   29.86F
SMITH CENTER   SUNNY     75  61  60 SE18G24   29.87F
BELOIT         SUNNY     81  61  50 SE18G24   29.85F
HAYS           PTSUNNY   79  61  53 SE20      29.85S
RUSSELL        MOSUNNY   77  64  64 SE18G30   29.85F
CONCORDIA      SUNNY     81  60  48 SE15      29.87F
SALINA         MOSUNNY   82  64  54 S14       29.87F
TOPEKA         SUNNY     81  64  56 S14       29.87F



USA.gov is the U.S. government's official web portal to all federal, state and local government web resources and services.